Home   Weather   Oranienburg   Past weeks

Flag for Germany Past Weather in Oranienburg, Brandenburg, Germany — Yesterday and Last 2 Weeks

45 °F

Passing clouds.

Feels Like: 45 °F
Forecast: 42 / 53 °F
Wind: 2 mph from North

Location: Berlin-Tegel

Current Time: Oct 26, 2016 at 11:36:38 PM

Latest Report: Oct 26, 2016 at 11:20 PM

Visibility: N/A

Pressure: 30.42 "Hg

Humidity: 87%

Dew Point: 41 °F

Location of OranienburgLocation

Past Weather in Oranienburg — Graph


Oranienburg Temperature Yesterday

Maximum temperature yesterday: 50 °F (at 12:20 PM)
Minimum temperature yesterday: 39 °F (at 11:20 PM)
Average temperature yesterday: 48 °F

High & Low Weather Summary for the Past Weeks

High54 °F (Oct 14, 2:20 PM)100% (Oct 13, 1:50 AM)30.42 "Hg (Oct 13, 1:50 AM)
Low39 °F (Oct 14, 5:50 AM)58% (Oct 14, 2:20 PM)29.86 "Hg (Oct 15, 4:50 AM)
Average47 °F88%30.08 "Hg
* Reported Oct 11 10:20 PM — Oct 26 10:20 PM, Oranienburg, Weather by CustomWeather, © 2016

Note: Actual official high and low records may vary slightly from our data, if they occured in-between our weather recording intervals... More about our weather records


Oranienburg Weather History for the Previous 24 Hours

Scroll right to see more
Time TempWeatherWind HumidityBarometerVisibility
10:20 PM
Wed, Oct 26
45 °FPassing clouds.5 mph87%30.42 "HgN/A
9:50 PM45 °FPassing clouds.2 mph87%30.42 "HgN/A
9:20 PM45 °FPartly cloudy.6 mph87%30.39 "HgN/A
8:50 PM45 °FPartly cloudy.6 mph87%30.39 "HgN/A
8:20 PM46 °FPassing clouds.5 mph82%30.39 "HgN/A
7:50 PM46 °FPassing clouds.5 mph82%30.39 "HgN/A
7:20 PM45 °FPassing clouds.2 mph87%30.39 "HgN/A
6:50 PM46 °FPassing clouds.5 mph87%30.39 "HgN/A
6:20 PM46 °FPartly cloudy.5 mph87%30.39 "HgN/A
5:50 PM46 °FPassing clouds.6 mph87%30.39 "HgN/A
5:20 PM46 °FBroken clouds.6 mph87%30.39 "HgN/A
4:50 PM46 °FBroken clouds.6 mph87%30.39 "HgN/A
4:20 PM46 °FPartly sunny.5 mph87%30.39 "HgN/A
3:50 PM48 °FPartly sunny.3 mph76%30.39 "HgN/A
3:20 PM48 °FPartly sunny.5 mph76%30.39 "HgN/A
2:50 PM48 °FPartly sunny.6 mph82%30.39 "HgN/A
2:20 PM48 °FPartly sunny.3 mph82%30.39 "HgN/A
1:50 PM48 °FPartly sunny.5 mph82%30.39 "HgN/A
1:20 PM48 °FPartly sunny.2 mph87%30.39 "Hg5 mi
12:50 PM48 °FPartly sunny.2 mph87%30.39 "Hg4 mi
12:20 PM46 °FPartly sunny.5 mph93%30.39 "Hg4 mi
11:50 AM46 °FPartly sunny.2 mph100%30.42 "Hg4 mi
11:20 AM46 °FPartly sunny.1 mph93%30.39 "Hg4 mi
10:50 AM45 °FPartly sunny.1 mph100%30.39 "Hg4 mi
10:20 AM43 °FFog.2 mph100%30.42 "Hg3 mi
9:50 AM43 °FFog.3 mph100%30.39 "Hg2 mi
9:20 AM43 °FFog.3 mph100%30.39 "Hg3 mi
8:50 AM43 °FFog.No wind100%30.39 "Hg2 mi
8:20 AM41 °FFog.2 mph100%30.39 "Hg1 mi
7:50 AM41 °FFog.1 mph100%30.39 "Hg1 mi
7:20 AM41 °FFog.2 mph100%30.39 "Hg1 mi
6:50 AM41 °FFog.2 mph100%30.36 "Hg0 mi
6:20 AM39 °FFog.1 mph100%30.36 "Hg0 mi
5:50 AM39 °FFog.3 mph100%30.36 "Hg0 mi
5:20 AM39 °FFog.1 mph100%30.36 "Hg0 mi
4:50 AM39 °FFog.3 mph100%30.36 "Hg0 mi
4:20 AM39 °FFog.3 mph100%30.36 "Hg0 mi
3:50 AM39 °FFog.3 mph100%30.36 "Hg0 mi
3:20 AM39 °FFog.3 mph100%30.33 "Hg0 mi
2:50 AM39 °FFog.3 mph100%30.33 "Hg0 mi
2:20 AM41 °FFog.3 mph100%30.33 "Hg0 mi
1:50 AM41 °FFog.3 mph100%30.33 "Hg0 mi
1:20 AM41 °FFog.2 mph100%30.33 "Hg1 mi
12:50 AM41 °FFog.2 mph100%30.33 "Hg1 mi
12:20 AM39 °FFog.2 mph100%30.30 "Hg1 mi
11:50 PM
Tue, Oct 25
39 °FFog.3 mph100%30.30 "Hg1 mi
11:20 PM39 °FFog.2 mph100%30.30 "Hg1 mi
Weather by CustomWeather, © 2016

See weather overviewHow to use our weather pages